User: anonymous   Login
Location: Castillon
(43.1358°N, 0.8654°E)
Time: 22:22:30
(UTC+00:00)
Language:

SMAP - Orbit

View from above orbital plane
View from above orbital plane
View from above satellite
View from above satellite

Ground track
Ground track

The orbit data is extracted from the following two-line orbital elements,

1 40376U 15003A   21110.60057366  .00000084  00000-0  25272-4 0  9991
2 40376  98.1255 118.6147 0001803  97.9955 262.1451 14.63370242332142
Epoch (UTC): 20 April 2021 14:24:49
Eccentricity: 0.0001803
inclination: 98.1255°
perigee height: 681 km
apogee height: 683 km
right ascension of ascending node: 118.6147°
argument of perigee: 97.9955°
revolutions per day: 14.63370242
mean anomaly at epoch: 262.1451°
orbit number at epoch: 33214

The dashed part of the orbit path shows where the satellite is in the earth's shadow,  

DLR